"Pseudo-MPEC" for P112kNU

Created 2020 Jul 5 18:07:07 UT using Find_Orb

Click here for an explanation of pseudo-MPECs

 
 Astrometry: 
     P112kNU  C2020 06 30dI*[:DRJhxjN-_e=%43d%2BkAstrometry_wCredacted;#G(^;LF51
     P112kNU  C2020 06 307eNY=sa$2Lvclick7:/U@h0,06RJhu'5#fPOWo$j2hereQQkcWgTF51
     P112kNU  C2020 06 30rvdltyNd+forRRZg*qY1f7!yB,j+c1explanation:5a$\%x5-b@F51

Station data:
(F51) Pan-STARRS 1, Haleakala  (N20.707235 W156.255910)  US/Hawaii.
   Observers N. Primak, A. Schultz, S. Watters, J. Thiel, T. Goggia. Measurer
   PS1 Science Consortium. 1.8-m Ritchey-Chrétien + CCD.

Orbital elements:  P112kNU
   Perihelion 2020 Aug 16.811789 +/- 27.7 TT = 19:28:58 (JD 2459078.311789)
Epoch 2020 Jul  1.0 TT = JDT 2459031.5   Earth MOID: 0.0154   AutoNEOCP
M 318.89529943 +/- 31               (J2000 ecliptic)
n   0.87808437 +/- 0.513            Peri.  232.30162 +/- 70
a   1.08005336 +/- 0.42             Node    93.75983 +/- 70
e   0.0626741 +/- 0.25              Incl.    3.34530 +/- 12
P   1.12/409.98d           H 27.3   G  0.15   U 12.3  SR
q 1.01236196 +/- 0.354    Q 1.14774477 +/- 25.8
From 3 observations 2020 June 30 (29.7 min); mean residual 0".10
Residuals in arcseconds: 
200630 F51  .02-  .10-    200630 F51  .03+  .20+    200630 F51  .02-  .10-    

Ephemerides (geocentric):
Date (UTC) HH   RA              Dec         delta   r     elong  mag " sig PA
---- -- -- --  -------------   -----------  ------ ------ -----  --- ---- ---
2020 07 05 18  23 16 14.884   -44 04 50.45  .01924 1.0276 124.0 20.8  52d 146
2020 07 05 19  23 17 08.342   -44 07 54.99  .01926 1.0275 123.9 20.8  52d 146
2020 07 05 20  23 18 01.808   -44 10 57.71  .01927 1.0275 123.7 20.8  52d 146
2020 07 05 21  23 18 55.280   -44 13 58.63  .01928 1.0275 123.6 20.8  52d 146
2020 07 05 22  23 19 48.757   -44 16 57.73  .01930 1.0275 123.5 20.8  52d 146
2020 07 05 23  23 20 42.238   -44 19 55.03  .01931 1.0274 123.3 20.8  52d 146
2020 07 06 00  23 21 35.720   -44 22 50.51  .01933 1.0274 123.2 20.8  52d 146
2020 07 06 01  23 22 29.203   -44 25 44.19  .01934 1.0274 123.1 20.8  52d 146
2020 07 06 02  23 23 22.684   -44 28 36.06  .01935 1.0273 123.0 20.8  52d 145
2020 07 06 03  23 24 16.163   -44 31 26.12  .01937 1.0273 122.8 20.8  52d 145
2020 07 06 04  23 25 09.637   -44 34 14.37  .01938 1.0273 122.7 20.8  52d 145
2020 07 06 05  23 26 03.105   -44 37 00.81  .01940 1.0273 122.6 20.8  52d 145
2020 07 06 06  23 26 56.565   -44 39 45.45  .01941 1.0272 122.4 20.8  52d 145
2020 07 06 07  23 27 50.016   -44 42 28.28  .01943 1.0272 122.3 20.8  52d 145
2020 07 06 08  23 28 43.457   -44 45 09.31  .01944 1.0272 122.2 20.8  52d 145
2020 07 06 09  23 29 36.885   -44 47 48.53  .01946 1.0271 122.0 20.9  52d 145
2020 07 06 10  23 30 30.299   -44 50 25.96  .01947 1.0271 121.9 20.9  52d 145
2020 07 06 11  23 31 23.698   -44 53 01.58  .01949 1.0271 121.8 20.9  52d 145
2020 07 06 12  23 32 17.079   -44 55 35.41  .01951 1.0271 121.7 20.9  52d 145
2020 07 06 13  23 33 10.443   -44 58 07.45  .01952 1.0270 121.5 20.9  52d 145
2020 07 06 14  23 34 03.786   -45 00 37.69  .01954 1.0270 121.4 20.9  52d 145
2020 07 06 15  23 34 57.107   -45 03 06.14  .01955 1.0270 121.3 20.9  52d 145
2020 07 06 16  23 35 50.406   -45 05 32.81  .01957 1.0269 121.1 20.9  52d 144
2020 07 06 17  23 36 43.679   -45 07 57.69  .01959 1.0269 121.0 20.9  52d 144
2020 07 06 18  23 37 36.926   -45 10 20.79  .01960 1.0269 120.9 20.9  52d 144
2020 07 06 19  23 38 30.146   -45 12 42.11  .01962 1.0269 120.8 20.9  52d 144
2020 07 06 20  23 39 23.336   -45 15 01.65  .01964 1.0268 120.6 20.9  52d 144
2020 07 06 21  23 40 16.495   -45 17 19.42  .01965 1.0268 120.5 20.9  52d 144
2020 07 06 22  23 41 09.622   -45 19 35.43  .01967 1.0268 120.4 20.9  52d 144
2020 07 06 23  23 42 02.715   -45 21 49.67  .01969 1.0267 120.2 20.9  52d 144
2020 07 07 00  23 42 55.773   -45 24 02.14  .01971 1.0267 120.1 20.9  51d 144
2020 07 07 01  23 43 48.794   -45 26 12.86  .01972 1.0267 120.0 20.9  51d 144
2020 07 07 02  23 44 41.776   -45 28 21.82  .01974 1.0267 119.9 20.9  51d 144
2020 07 07 03  23 45 34.719   -45 30 29.04  .01976 1.0266 119.7 21.0  51d 144
2020 07 07 04  23 46 27.620   -45 32 34.51  .01978 1.0266 119.6 21.0  51d 144
2020 07 07 05  23 47 20.479   -45 34 38.24  .01980 1.0266 119.5 21.0  51d 144
2020 07 07 06  23 48 13.293   -45 36 40.23  .01981 1.0265 119.4 21.0  51d 144
2020 07 07 07  23 49 06.062   -45 38 40.49  .01983 1.0265 119.2 21.0  51d 143
2020 07 07 08  23 49 58.783   -45 40 39.02  .01985 1.0265 119.1 21.0  51d 143
2020 07 07 09  23 50 51.456   -45 42 35.84  .01987 1.0265 119.0 21.0  51d 143
2020 07 07 10  23 51 44.079   -45 44 30.93  .01989 1.0264 118.9 21.0  51d 143
2020 07 07 11  23 52 36.650   -45 46 24.31  .01991 1.0264 118.7 21.0  51d 143
2020 07 07 12  23 53 29.169   -45 48 15.99  .01993 1.0264 118.6 21.0  51d 143
2020 07 07 13  23 54 21.633   -45 50 05.97  .01995 1.0263 118.5 21.0  51d 143
2020 07 07 14  23 55 14.042   -45 51 54.24  .01997 1.0263 118.4 21.0  51d 143
2020 07 07 15  23 56 06.394   -45 53 40.83  .01999 1.0263 118.3 21.0  51d 143
2020 07 07 16  23 56 58.687   -45 55 25.74  .02001 1.0263 118.1 21.0  51d 143
2020 07 07 17  23 57 50.921   -45 57 08.97  .02003 1.0262 118.0 21.0  51d 143